SB KEPS @ AMSAT $ORB11055.O Orbital Elements 11055.OSCAR
HR AMSAT ORBITAL ELEMENTS FOR OSCAR SATELLITES FROM WA5QGD FORT WORTH,TX February 24, 2011 Send Subscribe/unsubscribe to KEPS at http://www.amsat.org/mailman/listinfo/keps BID: ORB11055.O TO ALL RADIO AMATEURS BT
Satellite: AO-07 Catalog number: 07530 Epoch time: 11055.62960593 Element set: 12 Inclination: 101.3949 deg RA of node: 066.6080 deg Eccentricity: 0.0011972 Arg of perigee: 139.4532 deg Mean anomaly: 220.7428 deg Mean motion: 12.53581365 rev/day Decay rate: -2.7e-07 rev/day^2 Epoch rev: 66008 Checksum: 282
Satellite: FO-29 Catalog number: 24278 Epoch time: 11054.90986410 Element set: 0556 Inclination: 098.5276 deg RA of node: 214.3997 deg Eccentricity: 0.0350564 Arg of perigee: 190.7667 deg Mean anomaly: 168.5825 deg Mean motion: 13.52957857 rev/day Decay rate: 1.4e-07 rev/day^2 Epoch rev: 71714 Checksum: 352
Satellite: SO-33 Catalog number: 25509 Epoch time: 11054.66265538 Element set: 0911 Inclination: 031.4351 deg RA of node: 166.3700 deg Eccentricity: 0.0353905 Arg of perigee: 328.7396 deg Mean anomaly: 029.2612 deg Mean motion: 14.28368733 rev/day Decay rate: 2.83e-06 rev/day^2 Epoch rev: 64403 Checksum: 300
Satellite: RS-22 Catalog number: 27939 Epoch time: 11055.62129387 Element set: 20 Inclination: 097.8595 deg RA of node: 274.9080 deg Eccentricity: 0.0013559 Arg of perigee: 346.2162 deg Mean anomaly: 013.8662 deg Mean motion: 14.63514972 rev/day Decay rate: 1.44e-06 rev/day^2 Epoch rev: 39587 Checksum: 325
Satellite: VO-52 Catalog number: 28650 Epoch time: 11054.80044657 Element set: 726 Inclination: 097.6579 deg RA of node: 102.9326 deg Eccentricity: 0.0027133 Arg of perigee: 170.7824 deg Mean anomaly: 189.3841 deg Mean motion: 14.81916331 rev/day Decay rate: 8.8e-07 rev/day^2 Epoch rev: 31395 Checksum: 318
Satellite: SO-67 Catalog number: 35870 Epoch time: 11055.79124630 Element set: 592 Inclination: 097.2969 deg RA of node: 102.7657 deg Eccentricity: 0.0001771 Arg of perigee: 320.0210 deg Mean anomaly: 151.7572 deg Mean motion: 15.21371028 rev/day Decay rate: 1.460e-05 rev/day^2 Epoch rev: 7985 Checksum: 297
Satellite: HO-68 Catalog number: 36122 Epoch time: 11055.67095831 Element set: 142 Inclination: 100.4305 deg RA of node: 118.1270 deg Eccentricity: 0.0008044 Arg of perigee: 120.1606 deg Mean anomaly: 240.0312 deg Mean motion: 13.16284259 rev/day Decay rate: -4.5e-07 rev/day^2 Epoch rev: 5743 Checksum: 244
/EX SB KEPS @ AMSAT $ORB11055.D Orbital Elements 11055.MICROS
HR AMSAT ORBITAL ELEMENTS FOR THE MICROSATS FROM WA5QGD FORT WORTH,TX February 24, 2011 Send Subscribe/unsubscribe to KEPS at http://www.amsat.org/mailman/listinfo/keps BID: ORB11055.D TO ALL RADIO AMATEURS BT
Satellite: UO-11 Catalog number: 14781 Epoch time: 11054.75480058 Element set: 478 Inclination: 098.0193 deg RA of node: 111.7452 deg Eccentricity: 0.0009692 Arg of perigee: 140.6678 deg Mean anomaly: 219.5209 deg Mean motion: 14.79894199 rev/day Decay rate: 1.76e-06 rev/day^2 Epoch rev: 44901 Checksum: 330
Satellite: AO-16 Catalog number: 20439 Epoch time: 11054.82143116 Element set: 0127 Inclination: 098.3700 deg RA of node: 008.3114 deg Eccentricity: 0.0011356 Arg of perigee: 135.9221 deg Mean anomaly: 224.2874 deg Mean motion: 14.31896785 rev/day Decay rate: 5.0e-07 rev/day^2 Epoch rev: 10139 Checksum: 266
Satellite: LO-19 Catalog number: 20442 Epoch time: 11055.75717457 Element set: 34 Inclination: 098.3333 deg RA of node: 014.0039 deg Eccentricity: 0.0012451 Arg of perigee: 127.2880 deg Mean anomaly: 232.9449 deg Mean motion: 14.32124923 rev/day Decay rate: 1.30e-06 rev/day^2 Epoch rev: 10170 Checksum: 258
Satellite: AO-27 Catalog number: 22825 Epoch time: 11055.79654145 Element set: 756 Inclination: 098.5188 deg RA of node: 002.6381 deg Eccentricity: 0.0007494 Arg of perigee: 246.1450 deg Mean anomaly: 113.8957 deg Mean motion: 14.29328140 rev/day Decay rate: 7.9e-07 rev/day^2 Epoch rev: 90813 Checksum: 320
Satellite: IO-26 Catalog number: 22826 Epoch time: 11054.97660765 Element set: 0495 Inclination: 098.5133 deg RA of node: 002.3485 deg Eccentricity: 0.0008103 Arg of perigee: 242.8590 deg Mean anomaly: 117.1767 deg Mean motion: 14.29587341 rev/day Decay rate: 3.2e-07 rev/day^2 Epoch rev: 90813 Checksum: 307
Satellite: GO-32 Catalog number: 25397 Epoch time: 11055.84729987 Element set: 414 Inclination: 098.3224 deg RA of node: 054.4499 deg Eccentricity: 0.0000499 Arg of perigee: 201.9733 deg Mean anomaly: 158.1425 deg Mean motion: 14.23196263 rev/day Decay rate: -1.54e-06 rev/day^2 Epoch rev: 65598 Checksum: 333
Satellite: NO-44 Catalog number: 26931 Epoch time: 11055.61855193 Element set: 687 Inclination: 067.0517 deg RA of node: 273.5822 deg Eccentricity: 0.0007115 Arg of perigee: 271.7572 deg Mean anomaly: 088.2718 deg Mean motion: 14.29634718 rev/day Decay rate: -8.9e-07 rev/day^2 Epoch rev: 49083 Checksum: 332
Satellite: SO-50 Catalog number: 27607 Epoch time: 11055.26523214 Element set: 399 Inclination: 064.5594 deg RA of node: 310.7835 deg Eccentricity: 0.0059890 Arg of perigee: 347.5453 deg Mean anomaly: 012.4186 deg Mean motion: 14.71651475 rev/day Decay rate: 1.81e-06 rev/day^2 Epoch rev: 43947 Checksum: 317
Satellite: CO-55 Catalog number: 27844 Epoch time: 11055.57074896 Element set: 52 Inclination: 098.7080 deg RA of node: 065.9015 deg Eccentricity: 0.0009767 Arg of perigee: 159.2087 deg Mean anomaly: 200.9492 deg Mean motion: 14.20771068 rev/day Decay rate: 9.2e-07 rev/day^2 Epoch rev: 39692 Checksum: 332
Satellite: CO-57 Catalog number: 27848 Epoch time: 11054.58121540 Element set: 998 Inclination: 098.7140 deg RA of node: 064.0789 deg Eccentricity: 0.0009717 Arg of perigee: 166.4871 deg Mean anomaly: 193.6568 deg Mean motion: 14.20555675 rev/day Decay rate: 7.2e-07 rev/day^2 Epoch rev: 39673 Checksum: 350
Satellite: AO-51 Catalog number: 28375 Epoch time: 11055.53403099 Element set: 904 Inclination: 098.0856 deg RA of node: 039.9741 deg Eccentricity: 0.0085098 Arg of perigee: 051.7120 deg Mean anomaly: 309.1694 deg Mean motion: 14.40725937 rev/day Decay rate: 5.3e-07 rev/day^2 Epoch rev: 34984 Checksum: 325
Satellite: CP3 Catalog number: 31129 Epoch time: 11054.61780711 Element set: 0806 Inclination: 097.9104 deg RA of node: 085.3421 deg Eccentricity: 0.0102344 Arg of perigee: 173.1895 deg Mean anomaly: 187.0717 deg Mean motion: 14.52380442 rev/day Decay rate: 2.04e-06 rev/day^2 Epoch rev: 20435 Checksum: 269
Satellite: CO-65 Catalog number: 32785 Epoch time: 11054.77842746 Element set: 0925 Inclination: 097.8619 deg RA of node: 120.7827 deg Eccentricity: 0.0014801 Arg of perigee: 181.7302 deg Mean anomaly: 178.3814 deg Mean motion: 14.81835653 rev/day Decay rate: 2.83e-06 rev/day^2 Epoch rev: 15274 Checksum: 329
Satellite: KKS-1 Catalog number: 33493 Epoch time: 11055.77701404 Element set: 340 Inclination: 098.1089 deg RA of node: 182.8877 deg Eccentricity: 0.0020687 Arg of perigee: 047.1155 deg Mean anomaly: 313.1793 deg Mean motion: 14.81345045 rev/day Decay rate: 1.108e-05 rev/day^2 Epoch rev: 11287 Checksum: 294
Satellite: SOHLA-1 Catalog number: 33496 Epoch time: 11054.75357691 Element set: 0343 Inclination: 098.0686 deg RA of node: 165.8113 deg Eccentricity: 0.0007506 Arg of perigee: 120.1818 deg Mean anomaly: 240.0149 deg Mean motion: 14.69559447 rev/day Decay rate: 2.21e-06 rev/day^2 Epoch rev: 11182 Checksum: 293
Satellite: TISAT-1 Catalog number: 36799 Epoch time: 11055.80627504 Element set: 614 Inclination: 098.1148 deg RA of node: 122.8993 deg Eccentricity: 0.0014206 Arg of perigee: 281.3249 deg Mean anomaly: 078.6355 deg Mean motion: 14.80329222 rev/day Decay rate: 6.75e-06 rev/day^2 Epoch rev: 3368 Checksum: 312
Satellite: STUDSAT Catalog number: 36801 Epoch time: 11054.79354943 Element set: 0147 Inclination: 098.1153 deg RA of node: 121.7264 deg Eccentricity: 0.0013016 Arg of perigee: 272.4162 deg Mean anomaly: 087.5559 deg Mean motion: 14.80035966 rev/day Decay rate: 1.487e-05 rev/day^2 Epoch rev: 03352 Checksum: 292
Satellite: RAX Catalog number: 37223 Epoch time: 11047.27696737 Element set: 0084 Inclination: 071.9744 deg RA of node: 305.5778 deg Eccentricity: 0.0020243 Arg of perigee: 156.1195 deg Mean anomaly: 204.0952 deg Mean motion: 14.77236729 rev/day Decay rate: 2.10e-06 rev/day^2 Epoch rev: 01303 Checksum: 284
Satellite: OOREOS Catalog number: 37224 Epoch time: 11043.43618410 Element set: 0081 Inclination: 071.9758 deg RA of node: 314.1598 deg Eccentricity: 0.0019424 Arg of perigee: 162.0076 deg Mean anomaly: 198.1778 deg Mean motion: 14.76892599 rev/day Decay rate: 2.19e-06 rev/day^2 Epoch rev: 01245 Checksum: 307
Satellite: NANOSALD Catalog number: 37225 Epoch time: 11053.18324610 Element set: 0048 Inclination: 071.9732 deg RA of node: 292.6219 deg Eccentricity: 0.0023333 Arg of perigee: 099.1733 deg Mean anomaly: 261.2301 deg Mean motion: 14.79073791 rev/day Decay rate: 5.4584e-04 rev/day^2 Epoch rev: 00500 Checksum: 273
Satellite: FAST1-2 Catalog number: 37227 Epoch time: 11054.50853287 Element set: 0087 Inclination: 071.9737 deg RA of node: 289.8955 deg Eccentricity: 0.0016378 Arg of perigee: 137.2224 deg Mean anomaly: 223.0215 deg Mean motion: 14.76395354 rev/day Decay rate: 2.07e-06 rev/day^2 Epoch rev: 01408 Checksum: 308
/EX SB KEPS @ AMSAT $ORB11055.W Orbital Elements 11055.WEATHER
HR AMSAT ORBITAL ELEMENTS FOR WEATHER SATELLITES FROM WA5QGD FORT WORTH,TX February 24, 2011 Send Subscribe/unsubscribe to KEPS at http://www.amsat.org/mailman/listinfo/keps BID: ORB11055.W TO ALL RADIO AMATEURS BT
Satellite: NOAA-10 Catalog number: 16969 Epoch time: 11054.65656686 Element set: 0406 Inclination: 098.6314 deg RA of node: 085.9239 deg Eccentricity: 0.0011979 Arg of perigee: 193.8242 deg Mean anomaly: 166.2596 deg Mean motion: 14.27444681 rev/day Decay rate: -3.5e-07 rev/day^2 Epoch rev: 27145 Checksum: 339
